Perry, IA

8:01 PM CDT on March 27, 2017 (GMT -0500)
Perry Municipal

Weather History for KPRO - March, 2013

Change the Weather History Date:

Sunday, March 3, 2013

  Actual Average Record
Temperature  
Mean Temperature 26 °F -  
Max Temperature 34 °F 40 °F 72 °F (1983)
Min Temperature 18 °F 21 °F -10 °F (2014)
Degree Days  
Heating Degree Days 39    
Moisture  
Dew Point 21 °F    
Average Humidity 75    
Maximum Humidity 89    
Minimum Humidity 62    
Precipitation  
Precipitation 0.00 in - - ()
Sea Level Pressure  
Sea Level Pressure 29.97 in    
Wind  
Wind Speed 11 mph (SE)    
Max Wind Speed 18 mph    
Max Gust Speed 24 mph    
Visibility 10 miles    
Events      
Averages and records for this station are not official NWS values.
T = Trace of Precipitation, MM = Missing Value Source: NWS Daily Summary

Daily Weather History Graph

Daily Weather History Graph

Search for Another Location

Airport or City:

Trip Planner

Search our weather history database for the weather conditions in past years. The results will help you decide how hot, cold, wet, or windy it might be!

Date:

Astronomy

Mar. 03, 2013 Rise Set
Actual Time 6:47 AM CST 6:09 PM CST
Civil Twilight 6:20 AM CST 6:37 PM CST
Nautical Twilight 5:47 AM CST 7:09 PM CST
Astronomical Twilight 5:15 AM CST 7:42 PM CST
Moon No Moon Rise 9:57 AM CST (3/3)
Length of Visible Light 12h 17m
Length of Day
11h 21m
Waning Gibbous, 63% of the Moon is Illuminated
Mar 3
Waning Gibbous
Mar 4
Last Quarter
Mar 11
New
Mar 19
First Quarter
Mar 27
Full

Hourly Weather History & Observations

Time (CST) Temp. Windchill Dew Point Humidity Pressure Visibility Wind Dir Wind Speed Gust Speed Precip Events Conditions
12:15 AM 24.8 °F 16.9 °F 20.3 °F 83% 30.15 in 10.0 mi ESE 6.9 mph - N/A   Overcast
1:15 AM 24.4 °F 16.5 °F 20.7 °F 86% 30.14 in 10.0 mi SSE 6.9 mph - N/A   Overcast
1:35 AM 24.1 °F 16.0 °F 19.8 °F 84% 30.14 in 10.0 mi SSE 6.9 mph - N/A   Overcast
1:55 AM 23.7 °F 16.6 °F 20.1 °F 86% 30.13 in 10.0 mi SSE 5.8 mph - N/A   Overcast
2:15 AM 23.4 °F 16.2 °F 19.9 °F 87% 30.13 in 10.0 mi SSE 5.8 mph - N/A   Overcast
2:35 AM 22.5 °F 14.1 °F 19.4 °F 88% 30.11 in 10.0 mi SE 6.9 mph - N/A   Mostly Cloudy
3:15 AM 21.2 °F 10.1 °F 17.4 °F 85% 30.09 in 10.0 mi SSE 10.4 mph - N/A   Clear
3:35 AM 20.7 °F 10.2 °F 16.5 °F 84% 30.08 in 10.0 mi SSE 9.2 mph - N/A   Clear
3:55 AM 21.0 °F 10.6 °F 16.7 °F 83% 30.07 in 10.0 mi SSE 9.2 mph - N/A   Clear
4:15 AM 20.7 °F 10.2 °F 16.5 °F 84% 30.06 in 10.0 mi SSE 9.2 mph - N/A   Clear
4:35 AM 19.8 °F 9.1 °F 16.0 °F 85% 30.06 in 10.0 mi SSE 9.2 mph - N/A   Clear
5:15 AM 19.4 °F 8.6 °F 15.8 °F 86% 30.06 in 10.0 mi SSE 9.2 mph - N/A   Scattered Clouds
5:35 AM 18.5 °F 8.4 °F 15.6 °F 89% 30.06 in 10.0 mi SE 8.1 mph - N/A   Scattered Clouds
5:55 AM 19.6 °F 8.9 °F 16.3 °F 87% 30.06 in 10.0 mi ESE 9.2 mph - N/A   Mostly Cloudy
6:35 AM 19.6 °F 9.7 °F 16.7 °F 89% 30.06 in 10.0 mi ESE 8.1 mph - N/A   Overcast
7:15 AM 19.4 °F 7.9 °F 16.3 °F 88% 30.05 in 10.0 mi ESE 10.4 mph - N/A   Clear
7:35 AM 20.3 °F 9.8 °F 16.7 °F 86% 30.05 in 10.0 mi ESE 9.2 mph - N/A   Clear
8:15 AM 22.1 °F 12.0 °F 17.4 °F 82% 30.05 in 10.0 mi ESE 9.2 mph - N/A   Mostly Cloudy
8:35 AM 22.6 °F 11.3 °F 17.6 °F 81% 30.05 in 10.0 mi SE 11.5 mph - N/A   Overcast
8:55 AM 23.9 °F 13.5 °F 18.3 °F 79% 30.04 in 10.0 mi SE 10.4 mph - N/A   Scattered Clouds
9:15 AM 24.6 °F 12.7 °F 18.3 °F 77% 30.04 in 10.0 mi SE 13.8 mph - N/A   Scattered Clouds
9:35 AM 25.5 °F 14.9 °F 19.0 °F 76% 30.04 in 10.0 mi SE 11.5 mph - N/A   Mostly Cloudy
9:55 AM 27.1 °F 16.9 °F 19.6 °F 73% 30.03 in 10.0 mi SE 11.5 mph - N/A   Scattered Clouds
10:15 AM 28.0 °F 16.5 °F 19.8 °F 71% 30.03 in 10.0 mi SE 15.0 mph - N/A   Mostly Cloudy
10:35 AM 29.1 °F 17.9 °F 20.7 °F 71% 30.02 in 10.0 mi SE 15.0 mph - N/A   Overcast
10:55 AM 30.0 °F 20.5 °F 21.2 °F 70% 30.02 in 10.0 mi SE 11.5 mph - N/A   Mostly Cloudy
11:15 AM 31.3 °F 21.6 °F 21.7 °F 68% 30.01 in 10.0 mi SE 12.7 mph - N/A   Scattered Clouds
11:35 AM 31.8 °F 21.8 °F 22.1 °F 67% 30.01 in 10.0 mi SE 13.8 mph - N/A   Clear
11:55 AM 32.0 °F 20.8 °F 21.6 °F 65% 30.00 in 10.0 mi SE 17.3 mph - N/A   Clear
12:15 PM 32.4 °F 22.5 °F 22.8 °F 68% 29.99 in 10.0 mi SE 13.8 mph - N/A   Mostly Cloudy
12:35 PM 32.7 °F 22.1 °F 22.6 °F 66% 29.97 in 10.0 mi SE 16.1 mph - N/A   Mostly Cloudy
12:55 PM 32.9 °F 22.0 °F 22.5 °F 65% 29.96 in 10.0 mi SE 17.3 mph - N/A   Scattered Clouds
1:15 PM 33.1 °F 21.9 °F 22.3 °F 65% 29.96 in 10.0 mi ESE 18.4 mph - N/A   Clear
1:35 PM 34.0 °F 23.4 °F 22.6 °F 63% 29.94 in 10.0 mi ESE 17.3 mph - N/A   Clear
1:55 PM 33.8 °F 22.8 °F 21.9 °F 62% 29.93 in 10.0 mi SE 18.4 mph - N/A   Clear
2:15 PM 33.6 °F 23.3 °F 23.2 °F 66% 29.92 in 10.0 mi ESE 16.1 mph - N/A   Clear
2:35 PM 33.8 °F 23.5 °F 23.5 °F 66% 29.91 in 10.0 mi ESE 16.1 mph - N/A   Clear
2:55 PM 34.3 °F 23.9 °F 23.9 °F 66% 29.91 in 10.0 mi ESE 17.3 mph - N/A   Clear
3:15 PM 34.0 °F 23.0 °F 22.8 °F 64% 29.91 in 10.0 mi ESE 18.4 mph - N/A   Clear
3:35 PM 34.2 °F 23.3 °F 22.5 °F 62% 29.91 in 10.0 mi ESE 18.4 mph 24.2 mph N/A   Clear
3:55 PM 34.2 °F 24.0 °F 22.8 °F 63% 29.91 in 10.0 mi ESE 16.1 mph 21.9 mph N/A   Clear
4:15 PM 33.8 °F 22.8 °F 23.0 °F 65% 29.90 in 10.0 mi ESE 18.4 mph 23.0 mph N/A   Clear
4:35 PM 33.4 °F 23.1 °F 23.4 °F 67% 29.90 in 10.0 mi SE 16.1 mph - N/A   Clear
4:55 PM 33.3 °F 22.8 °F 23.0 °F 66% 29.90 in 10.0 mi SE 16.1 mph - N/A   Clear
5:15 PM 32.9 °F 22.0 °F 22.1 °F 65% 29.89 in 10.0 mi SE 17.3 mph - N/A   Clear
5:35 PM 32.9 °F 22.8 °F 22.8 °F 66% 29.89 in 10.0 mi ESE 15.0 mph - N/A   Clear
5:55 PM 32.0 °F 21.6 °F 24.3 °F 73% 29.88 in 10.0 mi ESE 15.0 mph - N/A   Scattered Clouds
6:15 PM 32.0 °F 21.6 °F 24.4 °F 74% 29.88 in 10.0 mi ESE 15.0 mph 20.7 mph N/A   Mostly Cloudy
6:35 PM 32.0 °F 20.8 °F 23.7 °F 71% 29.87 in 10.0 mi ESE 17.3 mph - N/A   Mostly Cloudy
6:55 PM 31.6 °F 21.2 °F 23.4 °F 71% 29.88 in 10.0 mi ESE 15.0 mph - N/A   Mostly Cloudy
7:15 PM 31.5 °F 20.9 °F 23.2 °F 71% 29.89 in 10.0 mi ESE 15.0 mph 20.7 mph N/A   Mostly Cloudy
7:35 PM 31.3 °F 21.1 °F 23.0 °F 71% 29.89 in 10.0 mi SE 13.8 mph - N/A   Overcast
7:55 PM 31.1 °F 20.9 °F 23.7 °F 74% 29.89 in 10.0 mi ESE 13.8 mph - N/A   Light Freezing Rain
8:15 PM 30.9 °F 19.8 °F 23.4 °F 74% 29.89 in 10.0 mi ESE 16.1 mph - N/A   Light Freezing Rain
8:35 PM 30.4 °F 18.4 °F 23.4 °F 75% 29.88 in 10.0 mi ESE 18.4 mph 23.0 mph N/A   Overcast
8:55 PM 30.2 °F 18.5 °F 23.2 °F 75% 29.89 in 10.0 mi ESE 17.3 mph 23.0 mph N/A   Overcast
9:15 PM 30.4 °F 19.5 °F 23.4 °F 75% 29.90 in 10.0 mi SE 15.0 mph - N/A   Overcast
9:35 PM 30.2 °F 18.1 °F 23.7 °F 77% 29.90 in 10.0 mi SE 18.4 mph - N/A   Overcast
9:55 PM 29.8 °F 18.4 °F 23.4 °F 77% 29.89 in 10.0 mi SE 16.1 mph - N/A   Overcast
10:15 PM 29.5 °F 18.0 °F 23.7 °F 79% 29.88 in 10.0 mi SE 16.1 mph - N/A   Overcast
10:35 PM 29.5 °F 17.2 °F 23.5 °F 79% 29.87 in 10.0 mi ESE 18.4 mph - N/A   Overcast
10:55 PM 29.3 °F 17.0 °F 24.1 °F 81% 29.87 in 10.0 mi ESE 18.4 mph 23.0 mph N/A   Overcast
11:15 PM 29.3 °F 17.3 °F 24.4 °F 82% 29.87 in 10.0 mi SE 17.3 mph - N/A   Overcast
11:35 PM 29.1 °F 17.5 °F 24.6 °F 83% 29.87 in 10.0 mi ESE 16.1 mph - N/A   Overcast
11:55 PM 29.3 °F 18.2 °F 24.3 °F 81% 29.87 in 10.0 mi ESE 15.0 mph - N/A   Overcast